Location: New Frontier Mobile Home Park
(32.8448°N, 116.9675°W)
Time: 22:50:48
(UTC+00:00)

USA 245 - Pass Details

Date: 14 July 2020
Orbit: 271 x 1010 km, 97.9° (Epoch: 01 August)

Event Time Altitude Azimuth Distance (km) Brightness Sun altitude
Exits shadow 05:12:40 72° 231° (SW) 606 3.4 -23.3°
Maximum altitude 05:12:52 74° 259° (W) 604 3.4 -23.4°
Drops below altitude 10° 05:17:30 10° 345° (NNW) 2,142 7.2 -24.0°
Sets 05:20:03 0° 347° (NNW) 3,195 8.2 -24.3°
